Weather History for Shoreham, United Kingdom

Change the Weather History Date:

Thursday, March 7, 2013

  Actual Average Record
Temperature  
Mean Temperature 48 °F -  
Max Temperature 51 °F 49 °F 59 °F (2002)
Min Temperature 46 °F 42 °F 32 °F (2005)
Degree Days  
Heating Degree Days 16    
Moisture  
Dew Point 47 °F    
Average Humidity 93    
Maximum Humidity 100    
Minimum Humidity 85    
Precipitation  
Precipitation 0.12 in - - ()
Sea Level Pressure  
Sea Level Pressure 29.41 in    
Wind  
Wind Speed 7 mph ()    
Max Wind Speed 13 mph    
Max Gust Speed -    
Visibility 1.4 miles    
Events Fog , Rain    
Averages and records for this station are not official NWS values.
T = Trace of Precipitation, MM = Missing Value Source: Averaged Metar Reports

Daily Weather History Graph

Daily Weather History Graph

Search for Another Location

Airport:

Trip Planner

Search our weather history database for the weather conditions in past years. The results will help you decide how hot, cold, wet, or windy it might be!

Date:

Astronomy

Mar. 07, 2013 Rise Set
Actual Time 6:32 AM GMT 5:52 PM GMT
Civil Twilight 5:59 AM GMT 6:25 PM GMT
Nautical Twilight 5:21 AM GMT 7:03 PM GMT
Astronomical Twilight 4:43 AM GMT 7:42 PM GMT
Moon 3:45 AM GMT (3/7) 1:00 PM GMT (3/7)
Length of Visible Light 12h 25m
Length of Day
11h 20m
Waning Crescent, 22% of the Moon is Illuminated
Mar 7
Waning Crescent
Mar 11
New
Mar 19
First Quarter
Mar 27
Full
Apr 3
Last Quarter

Hourly Weather History & Observations

Time (GMT) Temp. Windchill Dew Point Humidity Pressure Visibility Wind Dir Wind Speed Gust Speed Precip Events Conditions
2:50 AM 48 °F - 47 °F 93% 29.47 in - North 5.8 mph - -  
5:50 AM 49 °F - 46 °F 85% 29.45 in - East 5.8 mph - -  
7:20 AM 48.2 °F - 46.4 °F 93% 29.44 in 2.5 mi ENE 4.6 mph - N/A Rain Light Rain
7:50 AM 48.2 °F - 46.4 °F 93% 29.44 in 2.5 mi ENE 3.5 mph - N/A Rain Light Rain
8:20 AM 48.2 °F - 44.6 °F 87% 29.44 in 3.1 mi ENE 4.6 mph - N/A Rain Light Rain
8:50 AM 48 °F - 45 °F 87% 29.45 in - East 5.8 mph - -  
8:50 AM 48.2 °F - 44.6 °F 87% 29.44 in 3.1 mi ENE 6.9 mph - N/A Rain Rain
9:20 AM 48.2 °F - 44.6 °F 87% 29.44 in 2.8 mi East 6.9 mph - N/A Rain Light Rain
9:50 AM 48.2 °F - 46.4 °F 93% 29.42 in 2.5 mi East 5.8 mph - N/A Rain Light Rain
10:20 AM 48.2 °F - 46.4 °F 93% 29.42 in 2.5 mi East 5.8 mph - N/A Rain Light Rain
10:50 AM 50.0 °F - 48.2 °F 94% 29.42 in 2.2 mi East 4.6 mph - N/A Rain Light Rain
11:20 AM 50.0 °F - 48.2 °F 94% 29.42 in - East 5.8 mph - N/A Rain Light Rain
11:50 AM 51 °F - 48 °F 86% 29.42 in - ESE 9.2 mph - -  
11:50 AM 51.8 °F - 48.2 °F 88% 29.42 in 2.2 mi ESE 8.1 mph - N/A Rain Light Rain
12:20 PM 50.0 °F - 48.2 °F 94% 29.39 in 1.9 mi ESE 11.5 mph - N/A Rain Light Rain
12:50 PM 48.2 °F - 46.4 °F 93% 29.39 in 0.6 mi ESE 12.7 mph - N/A Rain Light Rain
1:20 PM 48.2 °F - 46.4 °F 93% 29.39 in 0.5 mi ESE 12.7 mph - N/A Fog , Rain Light Rain
1:50 PM 48.2 °F - 46.4 °F 93% 29.39 in 0.6 mi ESE 11.5 mph - N/A Fog , Rain Light Rain
2:20 PM 48.2 °F - 46.4 °F 93% 29.36 in 0.6 mi ESE 12.7 mph - N/A Fog Light Drizzle
2:50 PM 47 °F - 47 °F 100% 29.38 in - ESE 10.4 mph - -  
2:50 PM 48.2 °F - 46.4 °F 93% 29.36 in 0.6 mi ESE 10.4 mph - N/A Fog Light Drizzle
3:20 PM 48.2 °F - 46.4 °F 93% 29.36 in 0.5 mi ESE 11.5 mph - N/A Fog Light Drizzle
3:50 PM 48.2 °F - 46.4 °F 93% 29.36 in 0.4 mi ESE 11.5 mph - N/A Fog Light Drizzle
4:20 PM 46.4 °F 41.5 °F 46.4 °F 100% 29.39 in 0.1 mi ESE 10.4 mph - N/A Fog Fog
4:50 PM 46.4 °F 41.9 °F 46.4 °F 100% 29.39 in 0.1 mi ESE 9.2 mph - N/A Fog Fog
5:20 PM 46.4 °F 41.9 °F 46.4 °F 100% 29.39 in 0.1 mi ESE 9.2 mph - N/A Fog Fog
5:50 PM 47 °F - 46 °F 97% 29.39 in - ESE 10.4 mph - -  
5:50 PM 46.4 °F 41.5 °F 46.4 °F 100% 29.39 in 0.2 mi ESE 10.4 mph - N/A Fog Fog
8:50 PM 49 °F - 49 °F 100% 29.39 in - ESE 8.1 mph - -  
11:50 PM 51 °F - 49 °F 90% 29.38 in - ESE 10.4 mph - -